{"data":{"norad_id":67165,"intl_designator":"2025-303C","name":"STARLINK-36186","alt_names":[],"object_type":"PAYLOAD","status":"ACTIVE","operator":null,"country":"US","launch_date":"2025-12-17","launch_site_code":"AFETR","launch_vehicle":null,"mission":null,"orbit_class":"UNKNOWN","rcs_meters":null,"size_class":null,"mass_kg":null,"dimensions":null,"purposes":["comms"],"wikipedia_slug":null,"has_3d_model":false,"image_url":null,"decayed_at":null,"tle_current":{"epoch":"2026-05-24T23:04:24.633408Z","epoch_age_seconds":74521,"freshness":"FRESH","line1":"1 67165U 25303C   26144.96139622  .00025069  00000+0  91732-3 0  9999","line2":"2 67165  43.0020 239.6525 0001151 279.4448  80.6274 15.27583769 24404","mean_motion":15.27583769,"eccentricity":0.0001151,"inclination_deg":43.002,"raan_deg":239.6525,"arg_perigee_deg":279.4448,"mean_anomaly_deg":80.6274,"bstar":0.00091732,"rev_number":2440,"period_min":94.266516129761,"perigee_km":482.2480891003,"apogee_km":483.82753154163,"semimajor_km":6861.174810321,"source":"CELESTRAK","updated_at":"2026-05-25T13:38:21.479766Z"}}}